Location: Zagreb
(45.8150°N, 15.9819°E)
Time: 14:22:11
(UTC+02:00)

STARLINK-1758 - Pass Details

Date: 20 September 2020
Orbit: 378 x 380 km, 53.0° (Epoch: 20 October)

Event Time Altitude Azimuth Distance (km) Brightness Sun altitude
Exits shadow 05:48:01 - 300° (WNW) 1,485 5.4 -10.0°
Reaches altitude 10° 05:48:16 10° 303° (WNW) 1,403 5.3 -9.9°
Maximum altitude 05:50:46 21° 356° (N) 914 4.8 -9.5°
Drops below altitude 10° 05:53:17 10° 49° (NE) 1,405 6.8 -9.1°
Sets 05:55:39 0° 66° (ENE) 2,260 8.6 -8.7°
